| time (UTC) | temp C | wind direction | speed KPH | gust KPH | rain 1hr cm | rain 24hr cm | rain mn cm | humidity % | barometer mb |
| 20260510164827 | 26 | 297 | 3.2 | 14.5 | 0.00 | 0.00 | 0.00 | 54 | 1012.2 |
| 20260510164327 | 25 | 294 | 3.2 | 14.5 | 0.00 | 0.00 | 0.00 | 54 | 1012.3 |
| 20260510163828 | 25 | 5 | 4.8 | 9.7 | 0.00 | 0.00 | 0.00 | 59 | 1012.4 |
| 20260510163328 | 25 | 303 | 4.8 | 11.3 | 0.00 | 0.00 | 0.00 | 56 | 1012.3 |
| 20260510162821 | 25 | 329 | 4.8 | 11.3 | 0.00 | 0.00 | 0.00 | 58 | 1012.3 |
| 20260510162321 | 25 | 338 | 3.2 | 11.3 | 0.00 | 0.00 | 0.00 | 60 | 1012.4 |
| 20260510161819 | 25 | 59 | 3.2 | 6.4 | 0.00 | 0.00 | 0.00 | 61 | 1012.4 |
| 20260510161319 | 24 | 256 | 3.2 | 6.4 | 0.00 | 0.00 | 0.00 | 60 | 1012.4 |
| 20260510160818 | 24 | 191 | 3.2 | 14.5 | 0.00 | 0.00 | 0.00 | 61 | 1012.4 |
| 20260510160318 | 23 | 256 | 3.2 | 14.5 | 0.00 | 0.00 | 0.00 | 65 | 1012.4 |
| 20260510155816 | 23 | 187 | 3.2 | 8.0 | 0.00 | 0.00 | 0.00 | 67 | 1012.5 |
| 20260510155812 | 23 | 184 | 3.2 | 9.7 | 0.00 | 0.00 | 0.00 | 66 | 1012.4 |
| 20260510154813 | 22 | 317 | 3.2 | 6.4 | 0.00 | 0.00 | 0.00 | 69 | 1012.5 |
| 20260510154312 | 22 | 189 | 3.2 | 6.4 | 0.00 | 0.00 | 0.00 | 69 | 1012.7 |
| 20260510153811 | 22 | 211 | 3.2 | 8.0 | 0.00 | 0.00 | 0.00 | 68 | 1012.8 |
| 20260510153309 | 22 | 209 | 3.2 | 8.0 | 0.00 | 0.00 | 0.00 | 70 | 1012.9 |
| 20260510152808 | 21 | 223 | 3.2 | 6.4 | 0.00 | 0.00 | 0.00 | 73 | 1012.9 |
| 20260510152307 | 21 | 243 | 3.2 | 9.7 | 0.00 | 0.00 | 0.00 | 73 | 1012.8 |
| 20260510152037 | 21 | 159 | 3.2 | 9.7 | 0.00 | 0.00 | 0.00 | 74 | 1012.9 |
| 20260510151306 | 20 | 163 | 1.6 | 6.4 | 0.00 | 0.00 | 0.00 | 75 | 1012.8 |
| 20260510150805 | 20 | 146 | 1.6 | 6.4 | 0.00 | 0.00 | 0.00 | 74 | 1013.0 |
| 20260510150304 | 20 | 240 | 3.2 | 8.0 | 0.00 | 0.00 | 0.00 | 75 | 1013.1 |
| 20260510150034 | 20 | 189 | 3.2 | 8.0 | 0.00 | 0.00 | 0.00 | 77 | 1013.0 |
| 20260510145259 | 19 | 173 | 1.6 | 6.4 | 0.00 | 0.00 | 0.00 | 79 | 1013.0 |
| 20260510145029 | 18 | 215 | 1.6 | 8.0 | 0.00 | 0.00 | 0.00 | 78 | 1013.0 |
| 20260510144258 | 18 | 210 | 1.6 | 8.0 | 0.00 | 0.00 | 0.00 | 78 | 1013.0 |
| 20260510143758 | 18 | 198 | 3.2 | 8.0 | 0.00 | 0.00 | 0.00 | 79 | 1013.0 |
| 20260510143258 | 17 | 169 | 3.2 | 8.0 | 0.00 | 0.00 | 0.00 | 80 | 1013.0 |
| 20260510142753 | 17 | 167 | 3.2 | 8.0 | 0.00 | 0.00 | 0.00 | 82 | 1013.0 |
| 20260510142249 | 17 | 181 | 3.2 | 8.0 | 0.00 | 0.00 | 0.00 | 84 | 1013.1 |
| 20260510141748 | 17 | 173 | 1.6 | 8.0 | 0.00 | 0.00 | 0.00 | 82 | 1013.1 |
| 20260510141246 | 16 | 192 | 1.6 | 8.0 | 0.00 | 0.00 | 0.00 | 85 | 1013.2 |
| 20260510140746 | 16 | 195 | 3.2 | 8.0 | 0.00 | 0.00 | 0.00 | 86 | 1013.1 |
| 20260510140239 | 15 | 276 | 1.6 | 4.8 | 0.00 | 0.00 | 0.00 | 89 | 1012.9 |
| 20260510135738 | 15 | 246 | 1.6 | 6.4 | 0.00 | 0.00 | 0.00 | 89 | 1012.9 |
| 20260510135505 | 14 | 188 | 3.2 | 6.4 | 0.00 | 0.00 | 0.00 | 91 | 1012.9 |
| 20260510134736 | 14 | 192 | 3.2 | 6.4 | 0.00 | 0.00 | 0.00 | 90 | 1013.0 |
| 20260510134236 | 13 | 193 | 1.6 | 4.8 | 0.00 | 0.00 | 0.00 | 91 | 1013.0 |
| 20260510133735 | 13 | 196 | 1.6 | 6.4 | 0.00 | 0.00 | 0.00 | 92 | 1013.0 |
| 20260510133231 | 13 | 196 | 1.6 | 6.4 | 0.00 | 0.00 | 0.00 | 93 | 1012.9 |
| 20260510132732 | 13 | 123 | 1.6 | 4.8 | 0.00 | 0.00 | 0.00 | 94 | 1013.0 |
| 20260510132232 | 12 | 334 | 1.6 | 4.8 | 0.00 | 0.00 | 0.00 | 94 | 1012.9 |
| 20260510131733 | 12 | 279 | 1.6 | 4.8 | 0.00 | 0.00 | 0.00 | 94 | 1013.0 |
| 20260510131230 | 12 | 279 | 0.0 | 4.8 | 0.00 | 0.00 | 0.00 | 95 | 1013.2 |
| 20260510130730 | 12 | 275 | 0.0 | 4.8 | 0.00 | 0.00 | 0.00 | 95 | 1013.2 |
| 20260510130227 | 12 | 275 | 1.6 | 6.4 | 0.00 | 0.00 | 0.00 | 95 | 1013.2 |
| 20260510125726 | 12 | 276 | 1.6 | 6.4 | 0.00 | 0.00 | 0.00 | 96 | 1013.2 |
| 20260510125224 | 12 | 202 | 1.6 | 4.8 | 0.00 | 0.00 | 0.00 | 95 | 1013.2 |
| 20260510124954 | 12 | 202 | 1.6 | 6.4 | 0.00 | 0.00 | 0.00 | 96 | 1013.2 |
| 20260510124221 | 12 | 202 | 3.2 | 6.4 | 0.00 | 0.00 | 0.00 | 96 | 1013.0 |
| 20260510123720 | 12 | 201 | 3.2 | 6.4 | 0.00 | 0.00 | 0.00 | 96 | 1013.0 |
| 20260510123216 | 12 | 215 | 3.2 | 8.0 | 0.00 | 0.00 | 0.00 | 97 | 1012.8 |
| 20260510122718 | 11 | 173 | 3.2 | 8.0 | 0.00 | 0.00 | 0.00 | 98 | 1012.7 |
| 20260510122217 | 11 | 206 | 1.6 | 8.0 | 0.00 | 0.00 | 0.00 | 98 | 1012.4 |
| 20260510121718 | 11 | 206 | 0.0 | 4.8 | 0.00 | 0.00 | 0.00 | 98 | 1012.5 |
| 20260510121216 | 11 | 207 | 1.6 | 8.0 | 0.00 | 0.00 | 0.00 | 98 | 1012.5 |
| 20260510120714 | 11 | 201 | 1.6 | 8.0 | 0.00 | 0.00 | 0.00 | 99 | 1012.3 |
| 20260510120211 | 11 | 196 | 1.6 | 4.8 | 0.00 | 0.00 | 0.00 | 99 | 1012.3 |
| 20260510115712 | 11 | 275 | 0.0 | 0.0 | 0.00 | 0.00 | 0.00 | 99 | 1012.2 |
| 20260510115212 | 11 | 295 | 0.0 | 0.0 | 0.00 | 0.00 | 0.00 | 99 | 1012.3 |
| 20260510114713 | 11 | 295 | 0.0 | 0.0 | 0.00 | 0.00 | 0.00 | 99 | 1012.2 |
| 20260510114205 | 11 | 355 | 0.0 | 0.0 | 0.00 | 0.00 | 0.00 | 99 | 1012.0 |
| 20260510113934 | 10 | 348 | 0.0 | 0.0 | 0.00 | 0.00 | 0.00 | 100 | 1012.1 |
| 20260510113202 | 10 | 350 | 0.0 | 0.0 | 0.00 | 0.00 | 0.00 | 100 | 1012.2 |
| 20260510112700 | 10 | 350 | 0.0 | 0.0 | 0.00 | 0.00 | 0.00 | 100 | 1012.2 |
| 20260510112200 | 10 | 350 | 0.0 | 0.0 | 0.00 | 0.00 | 0.00 | 100 | 1012.2 |
| 20260510111927 | 10 | 350 | 0.0 | 0.0 | 0.00 | 0.00 | 0.00 | 100 | 1012.2 |
| 20260510111157 | 10 | 350 | 0.0 | 0.0 | 0.00 | 0.00 | 0.00 | 100 | 1012.2 |
| 20260510110658 | 10 | 350 | 0.0 | 0.0 | 0.00 | 0.00 | 0.00 | 100 | 1012.1 |
| 20260510110158 | 10 | 350 | 0.0 | 0.0 | 0.00 | 0.00 | 0.00 | 100 | 1012.2 |
| 20260510105654 | 10 | 350 | 0.0 | 0.0 | 0.00 | 0.00 | 0.00 | 100 | 1012.1 |
| 20260510105153 | 10 | 350 | 0.0 | 0.0 | 0.00 | 0.00 | 0.00 | 100 | 1012.2 |
| 20260510104655 | 10 | 350 | 0.0 | 0.0 | 0.00 | 0.00 | 0.00 | 100 | 1012.0 |
| 20260510104156 | 10 | 350 | 0.0 | 3.2 | 0.00 | 0.00 | 0.00 | 100 | 1011.7 |
| 20260510103654 | 10 | 350 | 0.0 | 3.2 | 0.00 | 0.00 | 0.00 | 100 | 1011.8 |
| 20260510103149 | 10 | 350 | 0.0 | 3.2 | 0.00 | 0.00 | 0.00 | 100 | 1011.8 |
| 20260510102651 | 10 | 350 | 0.0 | 0.0 | 0.00 | 0.00 | 0.00 | 100 | 1011.6 |
| 20260510102150 | 10 | 350 | 0.0 | 1.6 | 0.00 | 0.00 | 0.00 | 100 | 1011.6 |
| 20260510101650 | 10 | 350 | 0.0 | 1.6 | 0.00 | 0.00 | 0.00 | 100 | 1011.6 |
| 20260510101150 | 10 | 350 | 0.0 | 1.6 | 0.00 | 0.00 | 0.00 | 100 | 1011.7 |
| 20260510100650 | 10 | 350 | 0.0 | 4.8 | 0.00 | 0.00 | 0.00 | 100 | 1011.6 |
| 20260510100145 | 10 | 350 | 0.0 | 4.8 | 0.00 | 0.00 | 0.00 | 100 | 1011.6 |
| 20260510095646 | 9 | 351 | 0.0 | 1.6 | 0.00 | 0.00 | 0.00 | 100 | 1011.7 |
| 20260510095144 | 9 | 351 | 0.0 | 1.6 | 0.00 | 0.00 | 0.00 | 99 | 1011.7 |
| 20260510094644 | 9 | 351 | 0.0 | 1.6 | 0.00 | 0.00 | 0.00 | 99 | 1011.5 |
| 20260510094143 | 9 | 351 | 0.0 | 3.2 | 0.00 | 0.00 | 0.00 | 99 | 1011.5 |
| 20260510093641 | 9 | 350 | 0.0 | 3.2 | 0.00 | 0.00 | 0.00 | 99 | 1011.5 |
| 20260510093136 | 9 | 350 | 0.0 | 3.2 | 0.00 | 0.00 | 0.00 | 99 | 1011.4 |
| 20260510092634 | 9 | 355 | 1.6 | 4.8 | 0.00 | 0.00 | 0.00 | 99 | 1011.5 |
| 20260510092401 | 9 | 355 | 1.6 | 4.8 | 0.00 | 0.00 | 0.00 | 99 | 1011.6 |
| 20260510091629 | 9 | 355 | 0.0 | 1.6 | 0.00 | 0.00 | 0.00 | 99 | 1011.7 |
| 20260510091129 | 9 | 355 | 1.6 | 6.4 | 0.00 | 0.00 | 0.00 | 99 | 1011.7 |
| 20260510090626 | 9 | 355 | 1.6 | 6.4 | 0.00 | 0.00 | 0.00 | 99 | 1011.7 |
| 20260510090126 | 9 | 83 | 1.6 | 4.8 | 0.00 | 0.00 | 0.00 | 99 | 1011.5 |
| 20260510085622 | 9 | 55 | 1.6 | 6.4 | 0.00 | 0.00 | 0.00 | 99 | 1011.7 |
| 20260510085121 | 9 | 56 | 1.6 | 6.4 | 0.00 | 0.00 | 0.00 | 99 | 1011.6 |
| 20260510084852 | 9 | 355 | 1.6 | 8.0 | 0.00 | 0.00 | 0.00 | 99 | 1011.8 |
| 20260510084122 | 9 | 48 | 1.6 | 8.0 | 0.00 | 0.00 | 0.00 | 99 | 1011.5 |
| 20260510083614 | 9 | 355 | 3.2 | 11.3 | 0.00 | 0.00 | 0.00 | 99 | 1011.7 |
| 20260510083113 | 9 | 355 | 4.8 | 11.3 | 0.00 | 0.00 | 0.00 | 99 | 1011.8 |
| 20260510082842 | 10 | 121 | 3.2 | 11.3 | 0.00 | 0.00 | 0.00 | 100 | 1011.4 |
| 20260510082340 | 9 | 0 | 4.8 | 12.9 | 0.00 | 0.00 | 0.00 | 100 | 1011.8 |
| 20260510081609 | 10 | 355 | 4.8 | 12.9 | 0.00 | 0.00 | 0.00 | 99 | 1011.6 |
| 20260510081336 | 10 | 355 | 1.6 | 8.0 | 0.00 | 0.00 | 0.00 | 100 | 1011.2 |
| 20260510080606 | 9 | 44 | 1.6 | 3.2 | 0.00 | 0.00 | 0.00 | 100 | 1010.9 |
| 20260510080334 | 9 | 66 | 0.0 | 4.8 | 0.00 | 0.00 | 0.00 | 99 | 1010.9 |
| 20260510075600 | 9 | 66 | 1.6 | 4.8 | 0.00 | 0.00 | 0.00 | 99 | 1010.9 |
| 20260510075059 | 9 | 65 | 0.0 | 4.8 | 0.00 | 0.00 | 0.00 | 99 | 1010.9 |
| 20260510074558 | 9 | 65 | 0.0 | 0.0 | 0.00 | 0.00 | 0.00 | 99 | 1010.9 |
| 20260510074056 | 10 | 65 | 0.0 | 4.8 | 0.00 | 0.00 | 0.00 | 99 | 1010.9 |
| 20260510073558 | 9 | 65 | 0.0 | 4.8 | 0.00 | 0.00 | 0.00 | 99 | 1010.8 |
| 20260510073057 | 9 | 67 | 0.0 | 0.0 | 0.00 | 0.00 | 0.00 | 99 | 1010.8 |
| 20260510072557 | 9 | 67 | 0.0 | 0.0 | 0.00 | 0.00 | 0.00 | 99 | 1010.8 |
| 20260510072056 | 10 | 67 | 0.0 | 0.0 | 0.00 | 0.00 | 0.00 | 100 | 1010.9 |
| 20260510071555 | 9 | 67 | 0.0 | 3.2 | 0.00 | 0.00 | 0.00 | 99 | 1010.8 |
| 20260510071055 | 9 | 67 | 1.6 | 4.8 | 0.00 | 0.00 | 0.00 | 99 | 1010.8 |
| 20260510070549 | 10 | 67 | 1.6 | 4.8 | 0.00 | 0.00 | 0.00 | 99 | 1010.8 |
| 20260510070049 | 10 | 68 | 3.2 | 9.7 | 0.00 | 0.00 | 0.00 | 99 | 1010.8 |
| 20260510065549 | 9 | 24 | 3.2 | 9.7 | 0.00 | 0.00 | 0.00 | 99 | 1010.9 |
| 20260510065049 | 9 | 32 | 3.2 | 6.4 | 0.00 | 0.00 | 0.00 | 99 | 1010.9 |
| 20260510064549 | 9 | 52 | 3.2 | 11.3 | 0.00 | 0.00 | 0.00 | 99 | 1010.8 |
| 20260510064048 | 9 | 65 | 4.8 | 11.3 | 0.00 | 0.00 | 0.00 | 99 | 1010.8 |
| 20260510063546 | 10 | 56 | 3.2 | 8.0 | 0.00 | 0.00 | 0.00 | 99 | 1010.7 |
| 20260510063046 | 10 | 9 | 1.6 | 6.4 | 0.00 | 0.00 | 0.00 | 99 | 1010.6 |
| 20260510062817 | 10 | 63 | 1.6 | 6.4 | 0.00 | 0.00 | 0.00 | 99 | 1010.5 |
| 20260510062045 | 10 | 63 | 1.6 | 6.4 | 0.00 | 0.00 | 0.00 | 99 | 1010.4 |
| 20260510061545 | 10 | 108 | 0.0 | 3.2 | 0.00 | 0.00 | 0.00 | 100 | 1010.5 |
| 20260510061046 | 10 | 131 | 0.0 | 0.0 | 0.00 | 0.00 | 0.00 | 100 | 1010.5 |
| 20260510060544 | 10 | 131 | 0.0 | 0.0 | 0.00 | 0.00 | 0.00 | 100 | 1010.5 |
| 20260510060310 | 10 | 130 | 0.0 | 0.0 | 0.00 | 0.00 | 0.00 | 100 | 1010.6 |
| 20260510055541 | 10 | 131 | 0.0 | 0.0 | 0.00 | 0.00 | 0.00 | 100 | 1010.6 |
| 20260510055042 | 9 | 130 | 0.0 | 0.0 | 0.00 | 0.00 | 0.00 | 100 | 1010.6 |
| 20260510054541 | 9 | 130 | 0.0 | 0.0 | 0.00 | 0.00 | 0.00 | 100 | 1010.6 |
| 20260510054041 | 9 | 130 | 0.0 | 0.0 | 0.00 | 0.00 | 0.00 | 100 | 1010.7 |
| 20260510053539 | 9 | 130 | 0.0 | 0.0 | 0.00 | 0.00 | 0.00 | 99 | 1010.7 |
| 20260510053307 | 9 | 131 | 0.0 | 0.0 | 0.00 | 0.00 | 0.00 | 99 | 1010.7 |
| 20260510052535 | 9 | 130 | 0.0 | 0.0 | 0.00 | 0.00 | 0.00 | 99 | 1010.8 |
| 20260510052036 | 9 | 130 | 0.0 | 0.0 | 0.00 | 0.00 | 0.00 | 99 | 1010.8 |
| 20260510051535 | 9 | 131 | 0.0 | 0.0 | 0.00 | 0.00 | 0.00 | 99 | 1010.8 |
| 20260510051304 | 9 | 130 | 0.0 | 0.0 | 0.00 | 0.00 | 0.00 | 99 | 1010.9 |
| 20260510050533 | 9 | 130 | 0.0 | 0.0 | 0.00 | 0.00 | 0.00 | 99 | 1010.9 |
| 20260510050027 | 9 | 130 | 0.0 | 0.0 | 0.00 | 0.00 | 0.00 | 99 | 1010.9 |
| 20260510045524 | 9 | 130 | 0.0 | 0.0 | 0.00 | 0.00 | 0.00 | 99 | 1010.9 |
| 20260510045255 | 9 | 131 | 0.0 | 0.0 | 0.00 | 0.00 | 0.00 | 99 | 1010.9 |
| 20260510044524 | 9 | 130 | 0.0 | 0.0 | 0.00 | 0.00 | 0.00 | 99 | 1011.0 |
| 20260510044023 | 9 | 131 | 0.0 | 0.0 | 0.00 | 0.00 | 0.00 | 99 | 1011.0 |
| 20260510043520 | 9 | 131 | 0.0 | 0.0 | 0.00 | 0.00 | 0.00 | 99 | 1011.0 |
| 20260510043017 | 9 | 130 | 0.0 | 0.0 | 0.00 | 0.00 | 0.00 | 99 | 1011.1 |
| 20260510042515 | 9 | 131 | 0.0 | 0.0 | 0.00 | 0.00 | 0.00 | 99 | 1011.0 |
| 20260510042013 | 9 | 131 | 0.0 | 0.0 | 0.00 | 0.00 | 0.00 | 99 | 1011.1 |
| 20260510041510 | 9 | 131 | 0.0 | 0.0 | 0.00 | 0.00 | 0.00 | 99 | 1011.1 |
| 20260510041011 | 9 | 130 | 0.0 | 0.0 | 0.00 | 0.00 | 0.00 | 99 | 1011.1 |
| 20260510040500 | 9 | 130 | 0.0 | 0.0 | 0.00 | 0.00 | 0.00 | 99 | 1011.1 |
| 20260510040001 | 9 | 131 | 0.0 | 0.0 | 0.00 | 0.00 | 0.00 | 99 | 1011.0 |
| 20260510035501 | 9 | 130 | 0.0 | 0.0 | 0.00 | 0.00 | 0.00 | 98 | 1011.0 |
| 20260510034958 | 9 | 130 | 0.0 | 0.0 | 0.00 | 0.00 | 0.00 | 98 | 1011.0 |
| 20260510034457 | 9 | 131 | 0.0 | 0.0 | 0.00 | 0.00 | 0.00 | 98 | 1011.0 |
| 20260510033959 | 9 | 131 | 0.0 | 0.0 | 0.00 | 0.00 | 0.00 | 98 | 1010.9 |
| 20260510033458 | 9 | 131 | 0.0 | 0.0 | 0.00 | 0.00 | 0.00 | 98 | 1010.9 |
| 20260510032959 | 9 | 130 | 0.0 | 0.0 | 0.00 | 0.00 | 0.00 | 98 | 1010.8 |
| 20260510032458 | 9 | 130 | 0.0 | 0.0 | 0.00 | 0.00 | 0.00 | 98 | 1010.7 |
| 20260510031954 | 9 | 131 | 0.0 | 0.0 | 0.00 | 0.00 | 0.00 | 98 | 1010.7 |
| 20260510031453 | 9 | 130 | 0.0 | 0.0 | 0.00 | 0.00 | 0.00 | 98 | 1010.7 |
| 20260510030954 | 9 | 130 | 0.0 | 0.0 | 0.00 | 0.00 | 0.00 | 98 | 1010.8 |
| 20260510030454 | 9 | 131 | 0.0 | 0.0 | 0.00 | 0.00 | 0.00 | 97 | 1010.8 |
| 20260510025951 | 9 | 131 | 0.0 | 0.0 | 0.00 | 0.00 | 0.00 | 97 | 1010.7 |
| 20260510025452 | 9 | 130 | 0.0 | 0.0 | 0.00 | 0.00 | 0.00 | 97 | 1010.6 |
| 20260510024950 | 9 | 130 | 0.0 | 0.0 | 0.00 | 0.00 | 0.00 | 97 | 1010.6 |
| 20260510024447 | 9 | 131 | 0.0 | 0.0 | 0.00 | 0.00 | 0.00 | 96 | 1010.6 |
| 20260510023948 | 10 | 130 | 0.0 | 0.0 | 0.00 | 0.00 | 0.00 | 96 | 1010.5 |
| 20260510023448 | 10 | 131 | 0.0 | 0.0 | 0.00 | 0.00 | 0.00 | 96 | 1010.6 |
| 20260510022946 | 10 | 130 | 0.0 | 0.0 | 0.00 | 0.00 | 0.00 | 96 | 1010.5 |
| 20260510022445 | 10 | 131 | 0.0 | 0.0 | 0.00 | 0.00 | 0.00 | 96 | 1010.5 |
| 20260510021940 | 10 | 131 | 0.0 | 0.0 | 0.00 | 0.00 | 0.00 | 96 | 1010.6 |
| 20260510021438 | 10 | 130 | 0.0 | 0.0 | 0.00 | 0.00 | 0.00 | 96 | 1010.6 |
| 20260510020942 | 10 | 130 | 0.0 | 0.0 | 0.00 | 0.00 | 0.00 | 96 | 1010.5 |
| 20260510020937 | 10 | 130 | 0.0 | 0.0 | 0.00 | 0.00 | 0.00 | 96 | 1010.6 |
| 20260510020207 | 10 | 131 | 0.0 | 0.0 | 0.00 | 0.00 | 0.00 | 96 | 1010.6 |
| 20260510015436 | 10 | 130 | 0.0 | 0.0 | 0.00 | 0.00 | 0.00 | 96 | 1010.6 |
| 20260510014930 | 10 | 131 | 0.0 | 0.0 | 0.00 | 0.00 | 0.00 | 96 | 1010.6 |
| 20260510014431 | 10 | 130 | 0.0 | 0.0 | 0.00 | 0.00 | 0.00 | 95 | 1010.4 |
| 20260510013934 | 10 | 130 | 0.0 | 0.0 | 0.00 | 0.00 | 0.00 | 95 | 1010.5 |
| 20260510013702 | 10 | 130 | 0.0 | 0.0 | 0.00 | 0.00 | 0.00 | 95 | 1010.5 |
| 20260510012931 | 11 | 130 | 0.0 | 0.0 | 0.00 | 0.00 | 0.00 | 95 | 1010.4 |
| 20260510012433 | 11 | 130 | 0.0 | 0.0 | 0.00 | 0.00 | 0.00 | 95 | 1010.4 |
| 20260510012428 | 11 | 130 | 0.0 | 0.0 | 0.00 | 0.00 | 0.00 | 95 | 1010.4 |
| 20260510012040 | 11 | 130 | 0.0 | 0.0 | 0.00 | 0.00 | 0.00 | 95 | 1010.3 |
| 20260510010920 | 11 | 131 | 0.0 | 0.0 | 0.00 | 0.00 | 0.00 | 95 | 1010.2 |
| 20260510010418 | 11 | 131 | 0.0 | 0.0 | 0.00 | 0.00 | 0.00 | 95 | 1010.2 |
| 20260510005916 | 11 | 130 | 0.0 | 0.0 | 0.00 | 0.00 | 0.00 | 94 | 1010.2 |
| 20260510005642 | 11 | 130 | 0.0 | 0.0 | 0.00 | 0.00 | 0.00 | 94 | 1010.1 |
| 20260510004910 | 11 | 130 | 0.0 | 0.0 | 0.00 | 0.00 | 0.00 | 94 | 1010.1 |
| 20260510004411 | 11 | 130 | 0.0 | 0.0 | 0.00 | 0.00 | 0.00 | 94 | 1010.0 |
| 20260510003910 | 12 | 130 | 0.0 | 0.0 | 0.00 | 0.00 | 0.00 | 94 | 1010.0 |
| 20260510003408 | 12 | 131 | 0.0 | 0.0 | 0.00 | 0.00 | 0.00 | 94 | 1009.8 |
| 20260510003139 | 12 | 130 | 0.0 | 0.0 | 0.00 | 0.00 | 0.00 | 93 | 1009.7 |
| 20260510002403 | 12 | 130 | 0.0 | 0.0 | 0.00 | 0.00 | 0.00 | 93 | 1009.8 |
| 20260510002133 | 12 | 130 | 0.0 | 0.0 | 0.00 | 0.00 | 0.00 | 93 | 1009.8 |
| 20260510001402 | 12 | 130 | 0.0 | 0.0 | 0.00 | 0.00 | 0.00 | 93 | 1009.8 |
| 20260510000905 | 12 | 130 | 0.0 | 0.0 | 0.00 | 0.00 | 0.00 | 93 | 1009.8 |
| 20260510000403 | 12 | 130 | 0.0 | 0.0 | 0.00 | 0.00 | 0.00 | 93 | 1009.8 |
| 20260509235903 | 13 | 130 | 0.0 | 0.0 | 0.00 | 0.00 | 0.00 | 93 | 1009.8 |
| 20260509235359 | 13 | 130 | 0.0 | 0.0 | 0.00 | 0.00 | 0.00 | 93 | 1009.8 |
| 20260509234859 | 13 | 130 | 0.0 | 3.2 | 0.00 | 0.00 | 0.00 | 93 | 1009.8 |
| 20260509234629 | 13 | 130 | 0.0 | 3.2 | 0.00 | 0.00 | 0.00 | 93 | 1009.9 |
| 20260509233900 | 13 | 130 | 0.0 | 6.4 | 0.00 | 0.00 | 0.00 | 93 | 1009.8 |
| 20260509233358 | 13 | 130 | 0.0 | 6.4 | 0.00 | 0.00 | 0.00 | 94 | 1009.7 |
| 20260509232901 | 13 | 131 | 0.0 | 0.0 | 0.00 | 0.00 | 0.00 | 93 | 1009.7 |
| 20260509232359 | 13 | 131 | 0.0 | 0.0 | 0.00 | 0.00 | 0.00 | 94 | 1009.7 |
| 20260509232129 | 13 | 131 | 0.0 | 0.0 | 0.00 | 0.00 | 0.00 | 91 | 1009.8 |
| 20260509231624 | 13 | 131 | 0.0 | 0.0 | 0.00 | 0.00 | 0.00 | 91 | 1009.8 |
| 20260509230853 | 13 | 131 | 0.0 | 0.0 | 0.00 | 0.00 | 0.00 | 90 | 1009.8 |
| 20260509230355 | 13 | 131 | 0.0 | 0.0 | 0.00 | 0.00 | 0.00 | 90 | 1009.7 |
| 20260509225851 | 13 | 131 | 0.0 | 0.0 | 0.00 | 0.00 | 0.00 | 90 | 1009.8 |